Terminal Aerodrome Forecast
Issued by NWS Columbia, SC

Home | Current Version | Previous Version | Text Only | Print | Product List | Glossary On
Versions: 1 2 3 4 5 6 7 8 9 10 11 12 13 14 15 16 17 18 19 20 21 22 23 24 25 26 27 28 29 30 31 32 33 34 35 36 37 38 39
879
FTAK31 PAJN 232330
TAFAGS
TAF
PAGS 232330Z 2400/2424 22005KT P6SM FEW100
     FM240400 VRB03KT P6SM BKN150
     FM242100 16005KT P6SM BKN030 OVC060 PROB30 2421/2424 -RA
      AMD LTD TO CLD VIS AND WIND=

USA.gov is the U.S. government's official web portal to all federal, state and local government web resources and services.